Location: Bothwell
(42.3833°S, 147.0000°E)
Time: 04:32:22
(UTC+11:00)

ITUPSAT 1 - Pass Details

Date: 25 September 2022
Orbit: 700 x 710 km, 98.5° (Epoch: 29 November)

Event Time Altitude Azimuth Distance (km) Brightness Sun altitude
Exits shadow 19:03:13 11° 56° (NE) 2,127 ? -10.3°
Maximum altitude 19:07:09 29° 113° (ESE) 1,298 ? -11.0°
Drops below altitude 10° 19:11:19 10° 172° (S) 2,219 ? -11.8°
Sets 19:13:50 0° 183° (S) 3,148 ? -12.2°
